Regional Weather Roundup
Issued by NWS

Home | Current Version | Previous Version | Graphics & Text | Print | Product List | Glossary On
Versions: 1 2 3 4 5 6 7 8 9 10 11 12 13 14 15 16 17 18 19 20 21 22 23 24 25 26 27 28 29 30 31 32 33 34 35 36 37 38 39 40 41 42 43 44 45 46 47 48 49 50
000
ASUS43 KLSX 231507
RWRMO

WEATHER SUMMARY FOR MISSOURI
NATIONAL WEATHER SERVICE SPRINGFIELD MO
1000 AM CDT SAT AUG 23 2014

NOTE: "FAIR" INDICATES FEW OR NO CLOUDS BELOW 12,000 FEET WITH NO
       SIGNIFICANT WEATHER AND/OR OBSTRUCTIONS TO VISIBILITY.
       CURRENT SKY AND/OR WEATHER CONDITIONS ARE NOT AVAILABLE FOR
       CHILLICOTHE AND FARMINGTON.

MOZ001>031-035>038-043-044-053-054-231600-
...NORTHERN AND WESTERN MISSOURI...

CITY           SKY/WX    TMP DP  RH WIND       PRES   REMARKS
KANSAS CTY INT PTSUNNY   83  70  64 S8        29.93S
KANSAS C DTWN  SUNNY     85  69  58 S8        29.91F
LEE`S SUMMIT   SUNNY     82  69  64 S9        29.94F
ST JOSEPH      SUNNY     83  73  72 SE9       29.90F
CHILLICOTHE      N/A     83  73  72 S6        29.93F
KIRKSVILLE     PTSUNNY   76  72  87 VRB3      29.98F

$$
MOZ066>068-077>081-088>096-101>105-231600-
...SOUTHWEST MISSOURI...

CITY           SKY/WX    TMP DP  RH WIND       PRES   REMARKS
SPRINGFIELD    MOSUNNY   87  68  52 SW13      30.02S HX  90
JOPLIN         SUNNY     87  68  52 SW14      30.00R HX  90

$$
MOZ032>034-039>042-045>050-055>058-069>072-231600-
...CENTRAL MISSOURI...

CITY           SKY/WX    TMP DP  RH WIND       PRES   REMARKS
COLUMBIA       SUNNY     86  72  62 SW9       29.97F HX  92
JEFFERSON CITY SUNNY     87  72  60 VRB5      29.96F HX  93
ROLLA          SUNNY     85  72  65 SW8       30.00S HX  91
SEDALIA        MOSUNNY   87  72  60 SW15      29.96F HX  93
WHITEMAN AFB   MOSUNNY   82  66  56 SW13      29.94S
OSAGE BEACH    SUNNY     86  70  58 SW9       29.99S HX  90

$$
MOZ051-052-059>065-231600-
...EAST CENTRAL MISSOURI...

CITY           SKY/WX    TMP DP  RH WIND       PRES   REMARKS
ST LOUIS INTL  NOT AVBL
SPIRIT OF STL  MOSUNNY   87  74  64 W8        29.96S HX  95
ST CHARLES     SUNNY     87  74  64 W8        29.95S HX  95

$$
MOZ072>076-082>087-097>100-106>115-231600-
...SOUTH CENTRAL AND SOUTHEAST MISSOURI...

CITY           SKY/WX    TMP DP  RH WIND       PRES   REMARKS
CAPE GIRARDEAU SUNNY     85  77  77 W6        29.99R HX  95
FARMINGTON     SUNNY     88  72  58 W9        30.03S HX  94
POPLAR BLUFF   SUNNY     88  74  63 SW3       29.98S HX  96
WEST PLAINS    MOSUNNY   83  71  67 W9        30.06R

$$


USA.gov is the U.S. government's official web portal to all federal, state and local government web resources and services.